Home > Time Zones > World Clock > Weather > Belgium > Spa > Past weeks

Flag for Belgium Weather past 2 weeks in Spa, Belgium

Now
56 °F

Overcast.


Feels Like: 55 °F
Forecast: 48 / 63 °F
Wind: 6 mph from Southwest

Location: Spa / La Sauveniere

Current Time: Jul 28, 2015 at 6:15:25 PM

Latest Report: Jul 28, 2015 at 5:00 PM


Visibility: 19 mi

Pressure: 29.81 "Hg

Humidity: 66%

Dew point: 45 °F

Location of SpaLocation

Historic Weather in Spa — Graph

°F

Spa temperature yesterday

Maximum temperature yesterday: 60 °F (at 6:00 PM)
Minimum temperature yesterday: 53 °F (at 12:00 AM)
Average temperature yesterday: 56 °F

Past Weeks' High & Low Weather Summary

 TemperatureHumidityPressure
High85 °F (Jul 17, 5:00 PM)97% (Jul 19, 5:00 AM)30.16 "Hg (Jul 19, 5:00 AM)
Low47 °F (Jul 26, 6:00 AM)26% (Jul 17, 5:00 PM)29.56 "Hg (Jul 25, 7:00 AM)
Average63 °F79%29.94 "Hg
* Reported Jul 13 5:00 PM — Jul 28 5:00 PM, Spa, Weather by CustomWeather, © 2015

Note: Actual official high and low records may vary slightly from our data, if they occured in-between our weather recording intervals... More about our weather records

Advertising

Spa weather history for previous 24 hours

 ConditionsComfort  
Time TempWeatherWind HumidityBarometerVisibility
5:00 PM
Tue, Jul 28
56 °FOvercast.6 mph66%29.81 "Hg19 mi
3:00 PM59 °FOvercast.8 mph55%29.78 "Hg17 mi
2:00 PM59 °FOvercast.7 mph59%29.78 "Hg19 mi
1:00 PM59 °FPartly sunny.8 mph62%29.77 "Hg17 mi
12:00 PM56 °FOvercast.7 mph70%29.78 "Hg16 mi
11:00 AM54 °FOvercast.8 mph75%29.78 "Hg14 mi
10:00 AM53 °FOvercast.7 mph80%29.78 "Hg15 mi
9:00 AM52 °FOvercast.9 mph84%29.78 "Hg12 mi
8:00 AM51 °FOvercast.7 mph85%29.77 "Hg14 mi
7:00 AM51 °FOvercast.6 mph86%29.76 "Hg13 mi
6:00 AM51 °FOvercast.6 mph88%29.75 "Hg14 mi
5:00 AM51 °FOvercast.7 mph85%29.75 "Hg16 mi
4:00 AM51 °FOvercast.7 mph85%29.75 "Hg16 mi
3:00 AM51 °FOvercast.6 mph87%29.76 "Hg16 mi
2:00 AM51 °FOvercast.6 mph89%29.76 "Hg14 mi
1:00 AM52 °FPassing clouds.5 mph90%29.76 "Hg16 mi
12:00 AM54 °FLow clouds.6 mph92%29.75 "Hg13 mi
10:00 PM
Mon, Jul 27
56 °FOvercast.6 mph94%29.72 "Hg16 mi
9:00 PM58 °FOvercast.6 mph90%29.71 "Hg28 mi
8:00 PM58 °FOvercast.6 mph91%29.70 "Hg25 mi
7:00 PM58 °FOvercast.3 mph95%29.70 "Hg18 mi
6:00 PM60 °FLight rain. Overcast.7 mph83%29.68 "Hg22 mi
Weather by CustomWeather, © 2015

See weather overviewHow to use our weather pages